Tracking 30995 objects as of 7-Jul-2025
HD Live streaming from Space Station
objects crossing your sky now

N-2 R/B(2)

Track N-2 R/B(2) now!
10-day predictions


NORAD ID: 12787
Int'l Code: 1981-012C
Perigee: 213.6 km
Apogee: 17,756.7 km
Inclination: 28.0 °
Period: 315.6 minutes
Semi major axis: 15356 km
RCS: 2.6865 m2 (large)
Launch date: February 11, 1981
Source: Japan (JPN)
Launch site: TANEGASHIMA SPACE CENTER (TNSTA)

Note: This is a ROCKET BODY
Your satellite tracking list
Your tracking list is empty




NASA's NSSDC Master Catalog

Two Line Element Set (TLE):
1 12787U 81012C   25187.54930322  .00033699  00000-0  11027-2 0  9991
2 12787  28.0485 299.9458 5712080 356.6367   0.7169  4.56226335528126
Source of the keplerian elements: AFSPC